This demonstration page uses our WeatherBlox Daily Observations layout. Learn more.

Left ArrowRight Arrow

44.8408, -93.29828

Hourly Observations for July 17, 2022

Temp ( °F °C ) Dew Point ( °F °C ) Humidity (%) Winds ( mph kmh ) Pressure ( in mb ) Visibility ( mi km ) Precip ( " mm )
12:53 am 00:53 Cloudy 78 25.6 64 17.8 62 62 S 3 6 29.93 1014 10 16 0.00 0.00
1:53 am 01:53 Cloudy 75 23.9 65 18.3 71 71 SSE 3 6 29.93 1014 10 16 0.00 0.00
2:53 am 02:53 Mostly Cloudy 76 24.4 65 18.3 69 69 Calm 29.92 1013 10 16 0.00 0.00
3:53 am 03:53 Clear 75 23.9 66 18.9 74 74 Calm 29.91 1013 10 16 0.00 0.00
4:53 am 04:53 Mostly Cloudy 74 23.3 66 18.9 76 76 Calm 29.91 1013 10 16 0.00 0.00
5:53 am 05:53 Partly Cloudy 73 22.8 66 18.9 79 79 SSW 3 6 29.92 1013 10 16 0.00 0.00
6:53 am 06:53 Partly Cloudy 73 22.8 66 18.9 79 79 Calm 29.93 1014 10 16 0.00 0.00
7:53 am 07:53 Mostly Cloudy 74 23.3 67 19.4 79 79 Calm 29.94 1014 10 16 0.00 0.00
8:53 am 08:53 Sunny 78 25.6 68 20 71 71 W 3 6 29.94 1014 10 16 0.00 0.00
9:53 am 09:53 Partly Cloudy 82 27.8 67 19.4 60 60 VRB 3 6 29.93 1014 10 16 0.00 0.00
10:53 am 10:53 Partly Cloudy 81 27.2 63 17.2 54 54 ESE 3 6 29.93 1013 10 16 0.00 0.00
11:53 am 11:53 Mostly Cloudy 86 30 62 16.7 45 45 SSW 5 7 29.91 1013 10 16 0.00 0.00
12:53 pm 12:53 Mostly Cloudy 86 30 62 16.7 45 45 VRB 6 9 29.91 1013 10 16 0.00 0.00
1:53 pm 13:53 Mostly Cloudy 85 29.4 61 16.1 45 45 VRB 5 7 29.91 1013 10 16 0.00 0.00
2:41 pm 14:41 Cloudy with Thunderstorms 82 27.8 64 17.8 55 55 ESE 12 19 29.88 1012 10 16 0.00 0.00
2:53 pm 14:53 Cloudy with Thunderstorms 81 27.2 65 18.3 58 58 E 9 15 29.91 1013 10 16 0.00 0.00
3:00 pm 15:00 Mostly Cloudy 81 27.2 66 18.9 61 61 SE 8 13 29.88 1012 10 16 0.00 0.00
3:09 pm 15:09 Mostly Cloudy with Nearby Thunderstorms 83 28.3 66 18.9 57 57 ESE 8 13 29.87 1012 10 16 0.00 0.00
3:32 pm 15:32 Mostly Cloudy 86 30 66 18.9 51 51 ESE 10 17 29.87 1011 10 16 0.00 0.00
3:53 pm 15:53 Mostly Cloudy 86 30 65 18.3 49 49 SE 10 17 29.90 1013 10 16 0.00 0.00
4:53 pm 16:53 Mostly Cloudy 83 28.3 67 19.4 59 59 SSE 10 17 29.90 1012 10 16 0.00 0.00
5:53 pm 17:53 Mostly Cloudy with Light Rain 83 28.3 68 20 61 61 SSE 8 13 29.89 1012 10 16 0.00 0.00
6:53 pm 18:53 Mostly Cloudy 86 30 65 18.3 49 49 SSE 12 19 29.87 1012 10 16 0.00 0.00
7:53 pm 19:53 Partly Cloudy 84 28.9 65 18.3 53 53 S 9 15 29.87 1012 10 16 0.00 0.00
8:53 pm 20:53 Mostly Sunny 83 28.3 65 18.3 55 55 SSW 7 11 29.87 1011 10 16 0.00 0.00
9:53 pm 21:53 Clear 80 26.7 66 18.9 62 62 SSW 8 13 29.87 1012 10 16 0.00 0.00
10:53 pm 22:53 Clear 79 26.1 66 18.9 65 65 SW 8 13 29.88 1012 10 16 0.00 0.00
11:53 pm 23:53 Clear 78 25.6 66 18.9 67 67 SW 6 9 29.88 1012 10 16 0.00 0.00

Powered by AerisWeather